Weather Service Report


227 
ASUS41 KAKQ 301715
RWRAKQ

REGIONAL WEATHER ROUNDUP
NATIONAL WEATHER SERVICE WAKEFIELD VA
100 PM EDT SAT JUL 30 2016

Note: "fair" indicates few or no clouds below 12,000 feet with no
significant weather and/or obstructions to visibility. * = Denotes
station may not report precipitation (e.g., rain,snow,etc.),
thunder or fog.

VAZ042-051-052>054-056-301800-
NORTHERN VIRGINIA
  
CITY           SKY/WX    TMP DP  RH WIND       PRES   REMARKS
WASH NATIONAL  LGT RAIN  82  75  79 SW7G18    29.97F                  
DULLES         PTSUNNY   84  72  67 S12G20    29.98S                  
FORT BELVOIR   FAIR      86  73  64 S12       29.97F                  
QUANTICO       NOT AVBL                                               
FREDERICKSBRG* FAIR      83  77  82 S6        29.98F                  
STAFFORD*      PTSUNNY   82  73  74 S7        30.02F                  
WARRENTON      PTSUNNY   86  69  56 S8        29.97F                  
CULPEPER*      PTSUNNY   85  75  71 S7        29.98F                  
MANASSAS*      MOSUNNY   82  73  74 S10       29.98F                  
LEESBURG*      FAIR      88  77  70 S17G24    29.98S HX 100           
WINCHESTER     FAIR      86  72  62 S12G20    29.96F                  
FRONT ROYAL*   PTSUNNY   84  73  70 SE7       29.95F                  
LURAY*         NOT AVBL                                               
$$

VAZ048-049-060>072-079>083-301800-
CENTRAL AND SOUTH CENTRAL VIRGINIA
  
CITY           SKY/WX    TMP DP  RH WIND       PRES   REMARKS
RICHMOND       TSTM      73  72  96 SE18      30.01R FOG              
CHESTERFIELD*  CLOUDY    75  63  64 E7        30.02S THUNDER          
PETERSBURG*    RAIN      79  78  99 CALM      30.01R                  
HANOVER        PTSUNNY   81  75  82 CALM      30.01S                  
TAPPAHANNOCK*  FAIR      85  75  72 SE5       30.00F                  
QUINTON*       CLOUDY    83  75  76 CALM      29.99R                  
CHARLOTTSVILLE FAIR      88  72  58 S14       29.97F                  
GORDONSVILLE*  FAIR      85  75  70 S9        29.97F                  
ORANGE*          N/A     86  72  62 S7        29.99F                  
LOUISA*        FAIR      84  77  79 CALM      29.98F                  
BUMPASS*       PTSUNNY   82  76  80 SE5       29.99F                  
FARMVILLE*     PTSUNNY   86  76  73 S7        29.97F HX  96           
CREWE*         NOT AVBL                                               
FORT PICKETT*  CLOUDY    75  74  98 E5        30.01R                  
CHASE CITY*    CLOUDY    85  77  76 CALM      29.98F HX  95           
CLARKSVILLE*   FAIR      86  77  74 SW5       29.97F HX  97           
SOUTH HILL*    CLOUDY    82  77  86 CALM      30.05R THUNDER          
LAWRENCEVILLE* CLOUDY    76  74  93 N6        30.00R                  
EMPORIA*       PTSUNNY   81  77  89 CALM      29.99R THUNDER          
$$

VAZ088>098-301800-
SOUTHEAST VIRGINIA
  
CITY           SKY/WX    TMP DP  RH WIND       PRES   REMARKS
NORFOLK        PTSUNNY   87  73  62 E12       29.98F                  
VIRGINIA BEACH PTSUNNY   91  74  57 SE16      29.99F HX 100           
NORFOLK NAVAL  CLOUDY    88  74  63 E14       29.99F HX  96           
WEST POINT*    CLOUDY    87  72  61 SE5       29.99F                  
SALUDA*        PTSUNNY   85  76  76 E8        29.99F                  
NEWPORT NEWS   CLOUDY    85  75  72 E10       29.99S                  
LANGLEY AFB    PTSUNNY   84  75  75 E13       29.99S                  
FORT EUSTIS    FAIR      88  74  63 S6        29.97F HX  96           
WILLIAMSBURG*  FAIR      90  73  58 S7        29.99F HX  98           
HR EXEC AP*    PTSUNNY   90  75  62 SE9       30.00S HX 100           
FRANKLIN*      FAIR      89  74  63 SE6       29.97F HX  98           
US460-WAKEFLD  PTSUNNY   87  74  64 CALM      29.98F HX  95           
$$

VAZ020-022-025-037-045-301800-
WEST CENTRAL AND SOUTHWEST VIRGINIA
  
CITY           SKY/WX    TMP DP  RH WIND       PRES   REMARKS
STAUNTON*      CLOUDY    83  73  69 SE7       30.01F                  
WAYNESBORO*    PTSUNNY   84  69  61 S5        30.01F                  
HOT SPRINGS VA FAIR      75  66  73 W7        30.14F                  
LYNCHBURG      FAIR      86  73  65 VRB6      30.01F                  
DANVILLE       FAIR      87  73  62 W5        29.99F                  
SOUTH BOSTON*  PTSUNNY  N/A N/A N/A SW3       29.98F                  
MARTINSVILLE   FAIR      88  70  54 W5        30.03F                  
ROANOKE        FAIR      85  69  58 SW7       30.03F                  
BLACKSBURG     FAIR      81  70  69 W5        30.11F                  
DUBLIN*        PTSUNNY   83  70  65 W3        30.09F                  
MARION*        PTSUNNY   79  69  72 W10       30.14F                  
HILLSVILLE*    HVY RAIN  76  69  78 NW7       30.11S                  
RICHLANDS*     CLOUDY    74  70  87 SW8       30.13R                  
WISE*          CLOUDY    73  63  68 W10       30.13F                  
ABINGDON*      PTSUNNY   78  71  79 W8        30.11S                  
$$

MDZ021>025-VAZ099-100-301800-
SOUTHERN MARYLAND AND THE DELMARVA PENINSULA
  
CITY           SKY/WX    TMP DP  RH WIND       PRES   REMARKS
PATUXENT RIVER CLOUDY    82  71  69 SE12      29.99S                  
BAY BRIDGE APT PTSUNNY   88  75  66 S9        29.98S HX  97           
LEONARDTOWN    CLOUDY    81  72  74 SE8       30.01F                  
DOVER          CLOUDY    84  80  86 E14       29.98F HX  98           
GEORGETOWN     CLOUDY    88  68  51 SE13      30.02R                  
EASTON         PTSUNNY   88  77  70 S9        30.03S HX 100           
CAMBRIDGE      CLOUDY    82  72  69 S6        29.99F                  
SALISBURY      SUNNY     86  66  51 SE14      30.01S                  
OCEAN CITY     CLOUDY    82  73  74 S7        30.02S                  
WALLOPS ISLAND FAIR      83  73  72 SE13      30.02S                  
ACCOMACK*      FAIR      84  72  65 E7        30.01F                  
$$

NCZ012>017-030>032-301800-
NORTH CENTRAL AND EASTERN NORTH CAROLINA
  
CITY           SKY/WX    TMP DP  RH WIND       PRES   REMARKS
ROANOKE RAPIDS FAIR      88  77  70 S3        29.97F HX 100           
RALEIGH        PTSUNNY   91  73  55 SW14      29.97F HX  99           
ELIZABETH CITY MOSUNNY   91  73  55 E12       29.99F HX  99           
AHOSKIE*       CLOUDY    83  78  85 E3        29.97F                  
EDENTON*       LGT RAIN  89  75  63 E7        29.97F HX  99           
CURRITUCK*     MOSUNNY   87  76  68 E9        30.00S HX  97           
KILL DEVIL HLS SUNNY     90  79  70 E8        29.99F HX 106           
MANTEO         SUNNY     86  77  75 E13       30.00F HX  97           
CAPE HATTERAS  CLOUDY    85  79  82 E7        30.00F HX  98           
TARBORO*       FAIR      90  79  69 S6        29.97F HX 106           
GOLDSBORO      CLOUDY    81  73  78 VRB5G21   29.95F THUNDER          
WASHINGTON     SUNNY     91  78  67 SE9       29.97F HX 105           
GREENVILLE     CLOUDY    95  77  55 S8        29.98F HX 109           
NEW BERN       SUNNY     94  77  57 S8        29.99F HX 108           
WILMINGTON     MOSUNNY   95  73  48 SW10      29.98F HX 104           
$$

VAZ048-301800-
ELSEWHERE
  
CITY           SKY/WX    TMP DP  RH WIND       PRES   REMARKS
HARRISBURG PA  CLOUDY    82  76  81 NE6       29.96F                  
BALTIMORE      PTSUNNY   86  71  60 S7G18     29.96F                  
ANNAPOLIS      MOSUNNY  N/A N/A N/A CALM      29.97F                  
ANDREWS AFB    PTSUNNY   86  73  65 S14       29.97F                  
PHILADELPHIA   CLOUDY    87  71  58 S13       29.99S                  
GREENSBORO     PTSUNNY   89  69  51 W7        30.00F                  
ROCKY MOUNT    CLOUDY    89  77  67 S7        29.97F HX 101           
$$

VAZ100-301800-
MARINE
  
STATION/POSITION TIME  TEMP    WIND        PRES    WAVE   SWELL
                       AIR SEA DIR/SP/G            HT/PER HT/PER
                 (UTC) (F)     (DEG/KT/KT) (MB)    (FT/S) (FT/S)
BRANDYWINE LGT   1600   78     170/ 11/ 12   N/A
CAPE MAY NJ      1600   80 76  150/ 11/ 13 1015.9R
LEWES DE         1600   82 74  160/ 11/ 13 1016.2R
OCEAN-CITY-INLET 1600   80 77  180/  4/  7 1017.1R
WACHAPREAGUE VA  1600   82 86  110/  8/ 10 1016.5R
THOMAS POINT MD  1700   82 84  180/ 21/ 23 1016.1F
GOOSES REEF MD   1600   84 84  180/ 16/ 19 1016.3S   1/ 3
COVE POINT MD    1600   82     180/ 13/ 14 1016.4R
SOLOMONS ISLAND  1600   84 85  160/ 12/ 14   N/A
BISHOPS HEAD MD  1600   84     170/ 12/ 15 1016.3R
PINEY POINT MD   1600          170/ 10/ 11   N/A
POTOMAC MD       1600   83 85  170/ 12/ 14 1014.9R   1/ 2
CAMBRIDGE MD     1600   86 87  140/  5/ 11 1014.9R
LEWISETTA VA     1600   84 86  160/  8/ 10 1015.5R
RAPPAHANNOCK LGT 1600          130/ 10/ 11 1016.7R
STINGRAY PT      1600   83 86  110/  8/ 10 1016.7R   1
YORK RVR RNG VA  1600   81     130/ 10/ 12 1015.5S
YORKTOWN VA      1600   83 84   90/ 12/ 14 1015.3S
JAMESTOWN VA     1600   85 90  120/  6/  8   N/A     0
DOMINION TERM VA 1600   83      80/ 10/ 13 1015.9S
KIPTOPEKE VA     1600      80  160/ 10/ 14   N/A
CHES BAY BRIDGE  1600   81 81   80/ 12/ 16 1015.7F
CAPE HENRY VA    1600   81     110/  9/ 12   N/A
WILLOUBY STN VA  1600   81      90/ 12/ 13   N/A
CAPE HENRY BUOY  1612      81                N/A     2/ 6
1ST LANDING BUOY 1600   81 81  120/ 12/ 14 1015.6F   1/ 4
CAPE CHARLES BUO 1626      79                N/A     2/ 7
OFFSHORE WE BUOY 1621      83                N/A     3/ 7
64NM E OF VA BCH 1650   81 83   90/  8/ 10 1016.3F   3/ 6   3/ 6
DUCK PIER NC     1600   85 79  100/  8/  9 1015.4F
44100 DUCK FRF   1605      84                N/A     2/ 7
44056 DUCK FRF   1611      82                N/A     2/ 7
OREGON INLET NC  1600   84 76   90/  6/ 10 1016.0F
HATTERAS NC      1600   84 83  110/  8/ 10 1015.9S
DIAMOND SHLS NC  1650   83 85  220/ 10/ 10 1016.0F   2/ 7   2/ 7
CAPE LOOKOUT NC  1700   86     210/  8/ 12 1015.7R
$$
  

Return to Home page


Western Regional Climate Center, wrcc@dri.edu